Year,Month,Day,Hour,Minute,Value (Times are PST for temperature in C)
2012,12,04,00,00,7.90
2012,12,04,00,01,7.90
2012,12,04,00,02,7.90
2012,12,04,00,03,7.90
2012,12,04,00,04,7.90
2012,12,04,00,05,7.90
2012,12,04,00,06,7.90
2012,12,04,00,07,7.90
2012,12,04,00,08,7.90
2012,12,04,00,09,7.80
2012,12,04,00,10,7.80
2012,12,04,00,11,7.80
2012,12,04,00,12,7.80
2012,12,04,00,13,7.80
2012,12,04,00,14,7.80
2012,12,04,00,15,7.80
2012,12,04,00,16,7.80
2012,12,04,00,17,7.80
2012,12,04,00,18,7.80
2012,12,04,00,19,7.80
2012,12,04,00,20,7.80
2012,12,04,00,21,7.80
2012,12,04,00,22,7.80
2012,12,04,00,23,7.80
2012,12,04,00,24,7.80
2012,12,04,00,25,7.80
2012,12,04,00,26,7.80
2012,12,04,00,27,7.80
2012,12,04,00,28,7.70
2012,12,04,00,29,7.70
2012,12,04,00,30,7.70
2012,12,04,00,31,7.70
2012,12,04,00,32,7.70
2012,12,04,00,33,7.70
2012,12,04,00,34,7.70
2012,12,04,00,35,7.70
2012,12,04,00,36,7.70
2012,12,04,00,37,7.70
2012,12,04,00,38,7.70
2012,12,04,00,39,7.70
2012,12,04,00,40,7.70
2012,12,04,00,41,7.70
2012,12,04,00,42,7.70
2012,12,04,00,43,7.70
2012,12,04,00,44,7.70
2012,12,04,00,45,7.70
2012,12,04,00,46,7.70
2012,12,04,00,47,7.70
2012,12,04,00,48,7.70
2012,12,04,00,49,7.70
2012,12,04,00,50,7.70
2012,12,04,00,51,7.70
2012,12,04,00,52,7.70
2012,12,04,00,53,7.70
2012,12,04,00,54,7.70
2012,12,04,00,55,7.70
2012,12,04,00,56,7.70
2012,12,04,00,57,7.70
2012,12,04,00,58,7.70
2012,12,04,00,59,7.70
2012,12,04,01,00,7.70
2012,12,04,01,01,7.70
2012,12,04,01,02,7.70
2012,12,04,01,03,7.70
2012,12,04,01,04,7.70
2012,12,04,01,05,7.70
2012,12,04,01,06,7.70
2012,12,04,01,07,7.70
2012,12,04,01,08,7.70
2012,12,04,01,09,7.70
2012,12,04,01,10,7.70
2012,12,04,01,11,7.70
2012,12,04,01,12,7.70
2012,12,04,01,13,7.70
2012,12,04,01,14,7.70
2012,12,04,01,15,7.70
2012,12,04,01,16,7.70
2012,12,04,01,17,7.70
2012,12,04,01,18,7.70
2012,12,04,01,19,7.70
2012,12,04,01,20,7.70
2012,12,04,01,21,7.70
2012,12,04,01,22,7.70
2012,12,04,01,23,7.70
2012,12,04,01,24,7.70
2012,12,04,01,25,7.70
2012,12,04,01,26,7.70
2012,12,04,01,27,7.70
2012,12,04,01,28,7.70
2012,12,04,01,29,7.70
2012,12,04,01,30,7.70
2012,12,04,01,31,7.80
2012,12,04,01,32,7.80
2012,12,04,01,33,7.80
2012,12,04,01,34,7.80
2012,12,04,01,35,7.80
2012,12,04,01,36,7.80
2012,12,04,01,37,7.90
2012,12,04,01,38,7.90
2012,12,04,01,39,7.90
2012,12,04,01,40,7.90
2012,12,04,01,41,7.90
2012,12,04,01,42,7.90
2012,12,04,01,43,7.90
2012,12,04,01,44,7.90
2012,12,04,01,45,7.90
2012,12,04,01,46,7.90
2012,12,04,01,47,7.90
2012,12,04,01,48,7.90
2012,12,04,01,49,7.90
2012,12,04,01,50,7.80
2012,12,04,01,51,7.80
2012,12,04,01,52,7.80
2012,12,04,01,53,7.80
2012,12,04,01,54,7.80
2012,12,04,01,55,7.80
2012,12,04,01,56,7.80
2012,12,04,01,57,7.80
2012,12,04,01,58,7.80
2012,12,04,01,59,7.80
2012,12,04,02,00,7.80
2012,12,04,02,01,7.80
2012,12,04,02,02,7.80
2012,12,04,02,03,7.80
2012,12,04,02,04,7.80
2012,12,04,02,05,7.80
2012,12,04,02,06,7.80
2012,12,04,02,07,7.80
2012,12,04,02,08,7.80
2012,12,04,02,09,7.80
2012,12,04,02,10,7.80
2012,12,04,02,11,7.80
2012,12,04,02,12,7.80
2012,12,04,02,13,7.80
2012,12,04,02,14,7.80
2012,12,04,02,15,7.80
2012,12,04,02,16,7.80
2012,12,04,02,17,7.80
2012,12,04,02,18,7.80
2012,12,04,02,19,7.80
2012,12,04,02,20,7.80
2012,12,04,02,21,7.90
2012,12,04,02,22,7.90
2012,12,04,02,23,7.90
2012,12,04,02,24,7.90
2012,12,04,02,25,7.90
2012,12,04,02,26,7.90
2012,12,04,02,27,7.90
2012,12,04,02,28,7.90
2012,12,04,02,29,7.90
2012,12,04,02,30,7.90
2012,12,04,02,31,7.90
2012,12,04,02,32,7.90
2012,12,04,02,33,7.90
2012,12,04,02,34,7.80
2012,12,04,02,35,7.80
2012,12,04,02,36,7.80
2012,12,04,02,37,7.80
2012,12,04,02,38,7.80
2012,12,04,02,39,7.80
2012,12,04,02,40,7.80
2012,12,04,02,41,7.80
2012,12,04,02,42,7.80
2012,12,04,02,43,7.80
2012,12,04,02,44,7.70
2012,12,04,02,45,7.70
2012,12,04,02,46,7.70
2012,12,04,02,47,7.70
2012,12,04,02,48,7.70
2012,12,04,02,49,7.70
2012,12,04,02,50,7.80
2012,12,04,02,51,7.80
2012,12,04,02,52,7.80
2012,12,04,02,53,7.80
2012,12,04,02,54,7.80
2012,12,04,02,55,7.80
2012,12,04,02,56,7.80
2012,12,04,02,57,7.80
2012,12,04,02,58,7.70
2012,12,04,02,59,7.70
2012,12,04,03,00,7.70
2012,12,04,03,01,7.70
2012,12,04,03,02,7.70
2012,12,04,03,03,7.70
2012,12,04,03,04,7.80
2012,12,04,03,05,7.80
2012,12,04,03,06,7.80
2012,12,04,03,07,7.80
2012,12,04,03,08,7.90
2012,12,04,03,09,7.90
2012,12,04,03,10,7.90
2012,12,04,03,11,8.00
2012,12,04,03,12,8.00
2012,12,04,03,13,8.10
2012,12,04,03,14,8.10
2012,12,04,03,15,8.10
2012,12,04,03,16,8.00
2012,12,04,03,17,8.00
2012,12,04,03,18,8.00
2012,12,04,03,19,7.90
2012,12,04,03,20,7.90
2012,12,04,03,21,7.90
2012,12,04,03,22,7.80
2012,12,04,03,23,7.80
2012,12,04,03,24,7.90
2012,12,04,03,25,7.90
2012,12,04,03,26,7.80
2012,12,04,03,27,7.80
2012,12,04,03,28,7.80
2012,12,04,03,29,7.80
2012,12,04,03,30,7.80
2012,12,04,03,31,7.80
2012,12,04,03,32,7.80
2012,12,04,03,33,7.80
2012,12,04,03,34,7.90
2012,12,04,03,35,7.90
2012,12,04,03,36,7.90
2012,12,04,03,37,7.90
2012,12,04,03,38,7.90
2012,12,04,03,39,7.90
2012,12,04,03,40,7.90
2012,12,04,03,41,7.90
2012,12,04,03,42,7.90
2012,12,04,03,43,7.90
2012,12,04,03,44,8.00
2012,12,04,03,45,8.00
2012,12,04,03,46,8.10
2012,12,04,03,47,8.10
2012,12,04,03,48,8.10
2012,12,04,03,49,8.10
2012,12,04,03,50,8.10
2012,12,04,03,51,8.10
2012,12,04,03,52,8.10
2012,12,04,03,53,8.10
2012,12,04,03,54,8.20
2012,12,04,03,55,8.20
2012,12,04,03,56,8.20
2012,12,04,03,57,8.20
2012,12,04,03,58,8.20
2012,12,04,03,59,8.20
2012,12,04,04,00,8.20
2012,12,04,04,01,8.20
2012,12,04,04,02,8.20
2012,12,04,04,03,8.20
2012,12,04,04,04,8.20
2012,12,04,04,05,8.20
2012,12,04,04,06,8.20
2012,12,04,04,07,8.20
2012,12,04,04,08,8.20
2012,12,04,04,09,8.20
2012,12,04,04,10,8.20
2012,12,04,04,11,8.20
2012,12,04,04,12,8.20
2012,12,04,04,13,8.20
2012,12,04,04,14,8.20
2012,12,04,04,15,8.20
2012,12,04,04,16,8.20
2012,12,04,04,17,8.20
2012,12,04,04,18,8.10
2012,12,04,04,19,8.10
2012,12,04,04,20,8.10
2012,12,04,04,21,8.10
2012,12,04,04,22,8.20
2012,12,04,04,23,8.20
2012,12,04,04,24,8.20
2012,12,04,04,25,8.20
2012,12,04,04,26,8.20
2012,12,04,04,27,8.20
2012,12,04,04,28,8.20
2012,12,04,04,29,8.20
2012,12,04,04,30,8.20
2012,12,04,04,31,8.20
2012,12,04,04,32,8.20
2012,12,04,04,33,8.30
2012,12,04,04,34,8.30
2012,12,04,04,35,8.30
2012,12,04,04,36,8.30
2012,12,04,04,37,8.30
2012,12,04,04,38,8.20
2012,12,04,04,39,8.20
2012,12,04,04,40,8.20
2012,12,04,04,41,8.20
2012,12,04,04,42,8.20
2012,12,04,04,43,8.10
2012,12,04,04,44,8.10
2012,12,04,04,45,8.10
2012,12,04,04,46,8.10
2012,12,04,04,47,8.10
2012,12,04,04,48,8.10
2012,12,04,04,49,8.20
2012,12,04,04,50,8.20
2012,12,04,04,51,8.20
2012,12,04,04,52,8.20
2012,12,04,04,53,8.20
2012,12,04,04,54,8.20
2012,12,04,04,55,8.20
2012,12,04,04,56,8.20
2012,12,04,04,57,8.20
2012,12,04,04,58,8.10
2012,12,04,04,59,8.10
2012,12,04,05,00,8.10
2012,12,04,05,01,8.00
2012,12,04,05,02,8.00
2012,12,04,05,03,8.00
2012,12,04,05,04,7.90
2012,12,04,05,05,7.90
2012,12,04,05,06,7.90
2012,12,04,05,07,7.80
2012,12,04,05,08,7.80
2012,12,04,05,09,7.80
2012,12,04,05,10,7.70
2012,12,04,05,11,7.70
2012,12,04,05,12,7.70
2012,12,04,05,13,7.60
2012,12,04,05,14,7.60
2012,12,04,05,15,7.60
2012,12,04,05,16,7.60
2012,12,04,05,17,7.50
2012,12,04,05,18,7.50
2012,12,04,05,19,7.40
2012,12,04,05,20,7.40
2012,12,04,05,21,7.40
2012,12,04,05,22,7.40
2012,12,04,05,23,7.40
2012,12,04,05,24,7.30
2012,12,04,05,25,7.30
2012,12,04,05,26,7.30
2012,12,04,05,27,7.30
2012,12,04,05,28,7.30
2012,12,04,05,29,7.30
2012,12,04,05,30,7.30
2012,12,04,05,31,7.30
2012,12,04,05,32,7.30
2012,12,04,05,33,7.30
2012,12,04,05,34,7.20
2012,12,04,05,35,7.20
2012,12,04,05,36,7.20
2012,12,04,05,37,7.20
2012,12,04,05,38,7.20
2012,12,04,05,39,7.20
2012,12,04,05,40,7.20
2012,12,04,05,41,7.20
2012,12,04,05,42,7.20
2012,12,04,05,43,7.10
2012,12,04,05,44,7.10
2012,12,04,05,45,7.10
2012,12,04,05,46,7.10
2012,12,04,05,47,7.10
2012,12,04,05,48,7.00
2012,12,04,05,49,7.00
2012,12,04,05,50,7.00
2012,12,04,05,51,7.00
2012,12,04,05,52,7.00
2012,12,04,05,53,6.90
2012,12,04,05,54,6.90
2012,12,04,05,55,6.90
2012,12,04,05,56,6.90
2012,12,04,05,57,6.90
2012,12,04,05,58,6.90
2012,12,04,05,59,6.90
2012,12,04,06,00,6.90
2012,12,04,06,01,6.90
2012,12,04,06,02,6.90
2012,12,04,06,03,6.90
2012,12,04,06,04,6.90
2012,12,04,06,05,6.90
2012,12,04,06,06,6.90
2012,12,04,06,07,6.90
2012,12,04,06,08,6.90
2012,12,04,06,09,6.90
2012,12,04,06,10,6.90
2012,12,04,06,11,6.90
2012,12,04,06,12,6.90
2012,12,04,06,13,6.90
2012,12,04,06,14,6.90
2012,12,04,06,15,6.90
2012,12,04,06,16,6.90
2012,12,04,06,17,6.90
2012,12,04,06,18,6.90
2012,12,04,06,19,7.00
2012,12,04,06,20,7.10
2012,12,04,06,21,7.30
2012,12,04,06,22,7.40
2012,12,04,06,23,7.50
2012,12,04,06,24,7.60
2012,12,04,06,25,7.70
2012,12,04,06,26,7.80
2012,12,04,06,27,7.80
2012,12,04,06,28,7.80
2012,12,04,06,29,7.90
2012,12,04,06,30,7.90
2012,12,04,06,31,8.00
2012,12,04,06,32,8.00
2012,12,04,06,33,8.10
2012,12,04,06,34,8.10
2012,12,04,06,35,8.20
2012,12,04,06,36,8.30
2012,12,04,06,37,8.40
2012,12,04,06,38,8.40
2012,12,04,06,39,8.50
2012,12,04,06,40,8.50
2012,12,04,06,41,8.50
2012,12,04,06,42,8.50
2012,12,04,06,43,8.50
2012,12,04,06,44,8.50
2012,12,04,06,45,8.50
2012,12,04,06,46,8.50
2012,12,04,06,47,8.60
2012,12,04,06,48,8.60
2012,12,04,06,49,8.70
2012,12,04,06,50,8.70
2012,12,04,06,51,8.70
2012,12,04,06,52,8.80
2012,12,04,06,53,8.80
2012,12,04,06,54,8.80
2012,12,04,06,55,8.80
2012,12,04,06,56,8.80
2012,12,04,06,57,8.80
2012,12,04,06,58,8.80
2012,12,04,06,59,8.80
2012,12,04,07,00,8.80
2012,12,04,07,01,8.80
2012,12,04,07,02,8.80
2012,12,04,07,03,8.80
2012,12,04,07,04,8.80
2012,12,04,07,05,8.80
2012,12,04,07,06,8.80
2012,12,04,07,07,8.80
2012,12,04,07,08,8.80
2012,12,04,07,09,8.80
2012,12,04,07,10,8.80
2012,12,04,07,11,8.80
2012,12,04,07,12,8.80
2012,12,04,07,13,8.80
2012,12,04,07,14,8.70
2012,12,04,07,15,8.70
2012,12,04,07,16,8.70
2012,12,04,07,17,8.70
2012,12,04,07,18,8.70
2012,12,04,07,19,8.80
2012,12,04,07,20,8.80
2012,12,04,07,21,8.80
2012,12,04,07,22,8.70
2012,12,04,07,23,8.70
2012,12,04,07,24,8.70
2012,12,04,07,25,8.70
2012,12,04,07,26,8.70
2012,12,04,07,27,8.70
2012,12,04,07,28,8.70
2012,12,04,07,29,8.70
2012,12,04,07,30,8.70
2012,12,04,07,31,8.70
2012,12,04,07,32,8.70
2012,12,04,07,33,8.70
2012,12,04,07,34,8.70
2012,12,04,07,35,8.70
2012,12,04,07,36,8.70
2012,12,04,07,37,8.60
2012,12,04,07,38,8.60
2012,12,04,07,39,8.60
2012,12,04,07,40,8.50
2012,12,04,07,41,8.50
2012,12,04,07,42,8.50
2012,12,04,07,43,8.50
2012,12,04,07,44,8.50
2012,12,04,07,45,8.50
2012,12,04,07,46,8.50
2012,12,04,07,47,8.50
2012,12,04,07,48,8.50
2012,12,04,07,49,8.50
2012,12,04,07,50,8.50
2012,12,04,07,51,8.50
2012,12,04,07,52,8.50
2012,12,04,07,53,8.40
2012,12,04,07,54,8.40
2012,12,04,07,55,8.40
2012,12,04,07,56,8.40
2012,12,04,07,57,8.40
2012,12,04,07,58,8.50
2012,12,04,07,59,8.50
2012,12,04,08,00,8.60
2012,12,04,08,01,8.60
2012,12,04,08,02,8.60
2012,12,04,08,03,8.60
2012,12,04,08,04,8.60
2012,12,04,08,05,8.60
2012,12,04,08,06,8.60
2012,12,04,08,07,8.50
2012,12,04,08,08,8.50
2012,12,04,08,09,8.40
2012,12,04,08,10,8.40
2012,12,04,08,11,8.40
2012,12,04,08,12,8.30
2012,12,04,08,13,8.30
2012,12,04,08,14,8.30
2012,12,04,08,15,8.30
2012,12,04,08,16,8.30
2012,12,04,08,17,8.30
2012,12,04,08,18,8.30
2012,12,04,08,19,8.30
2012,12,04,08,20,8.30
2012,12,04,08,21,8.30
2012,12,04,08,22,8.40
2012,12,04,08,23,8.40
2012,12,04,08,24,8.40
2012,12,04,08,25,8.40
2012,12,04,08,26,8.40
2012,12,04,08,27,8.40
2012,12,04,08,28,8.40
2012,12,04,08,29,8.40
2012,12,04,08,30,8.40
2012,12,04,08,31,8.40
2012,12,04,08,32,8.40
2012,12,04,08,33,8.40
2012,12,04,08,34,8.40
2012,12,04,08,35,8.40
2012,12,04,08,36,8.40
2012,12,04,08,37,8.50
2012,12,04,08,38,8.60
2012,12,04,08,39,8.70
2012,12,04,08,40,8.70
2012,12,04,08,41,8.80
2012,12,04,08,42,8.80
2012,12,04,08,43,8.80
2012,12,04,08,44,8.80
2012,12,04,08,45,8.80
2012,12,04,08,46,8.80
2012,12,04,08,47,8.80
2012,12,04,08,48,8.80
2012,12,04,08,49,8.70
2012,12,04,08,50,8.70
2012,12,04,08,51,8.70
2012,12,04,08,52,8.60
2012,12,04,08,53,8.60
2012,12,04,08,54,8.60
2012,12,04,08,55,8.60
2012,12,04,08,56,8.60
2012,12,04,08,57,8.50
2012,12,04,08,58,8.50
2012,12,04,08,59,8.50
2012,12,04,09,00,8.40
2012,12,04,09,01,8.50
2012,12,04,09,02,8.50
2012,12,04,09,03,8.40
2012,12,04,09,04,8.50
2012,12,04,09,05,8.40
2012,12,04,09,06,8.40
2012,12,04,09,07,8.50
2012,12,04,09,08,8.50
2012,12,04,09,09,8.50
2012,12,04,09,10,8.60
2012,12,04,09,11,8.60
2012,12,04,09,12,8.60
2012,12,04,09,13,8.60
2012,12,04,09,14,8.70
2012,12,04,09,15,8.70
2012,12,04,09,16,8.70
2012,12,04,09,17,8.80
2012,12,04,09,18,8.80
2012,12,04,09,19,8.80
2012,12,04,09,20,8.80
2012,12,04,09,21,8.80
2012,12,04,09,22,8.80
2012,12,04,09,23,8.80
2012,12,04,09,24,8.80
2012,12,04,09,25,8.80
2012,12,04,09,26,8.80
2012,12,04,09,27,8.80
2012,12,04,09,28,8.80
2012,12,04,09,29,8.90
2012,12,04,09,30,8.90
2012,12,04,09,31,8.90
2012,12,04,09,32,8.90
2012,12,04,09,33,9.00
2012,12,04,09,34,9.00
2012,12,04,09,35,9.00
2012,12,04,09,36,9.10
2012,12,04,09,37,9.10
2012,12,04,09,38,9.10
2012,12,04,09,39,9.10
2012,12,04,09,40,9.10
2012,12,04,09,41,9.00
2012,12,04,09,42,9.00
2012,12,04,09,43,9.00
2012,12,04,09,44,9.00
2012,12,04,09,45,9.00
2012,12,04,09,46,9.00
2012,12,04,09,47,9.00
2012,12,04,09,48,8.90
2012,12,04,09,49,8.90
2012,12,04,09,50,9.00
2012,12,04,09,51,9.00
2012,12,04,09,52,9.00
2012,12,04,09,53,9.00
2012,12,04,09,54,9.10
2012,12,04,09,55,9.10
2012,12,04,09,56,9.10
2012,12,04,09,57,9.10
2012,12,04,09,58,9.20
2012,12,04,09,59,9.20
2012,12,04,10,00,9.20
2012,12,04,10,01,9.20
2012,12,04,10,02,9.30
2012,12,04,10,03,9.30
2012,12,04,10,04,9.30
2012,12,04,10,05,9.40
2012,12,04,10,06,9.40
2012,12,04,10,07,9.50
2012,12,04,10,08,9.50
2012,12,04,10,09,9.60
2012,12,04,10,10,9.60
2012,12,04,10,11,9.60
2012,12,04,10,12,9.60
2012,12,04,10,13,9.60
2012,12,04,10,14,9.70
2012,12,04,10,15,9.70
2012,12,04,10,16,9.70
2012,12,04,10,17,9.80
2012,12,04,10,18,9.80
2012,12,04,10,19,9.80
2012,12,04,10,20,9.70
2012,12,04,10,21,9.70
2012,12,04,10,22,9.70
2012,12,04,10,23,9.70
2012,12,04,10,24,9.70
2012,12,04,10,25,9.60
2012,12,04,10,26,9.60
2012,12,04,10,27,9.60
2012,12,04,10,28,9.50
2012,12,04,10,29,9.50
2012,12,04,10,30,9.40
2012,12,04,10,31,9.40
2012,12,04,10,32,9.40
2012,12,04,10,33,9.50
2012,12,04,10,34,9.50
2012,12,04,10,35,9.60
2012,12,04,10,36,9.60
2012,12,04,10,37,9.60
2012,12,04,10,38,9.60
2012,12,04,10,39,9.60
2012,12,04,10,40,9.60
2012,12,04,10,41,9.60
2012,12,04,10,42,9.60
2012,12,04,10,43,9.60
2012,12,04,10,44,9.60
2012,12,04,10,45,9.70
2012,12,04,10,46,9.70
2012,12,04,10,47,9.70
2012,12,04,10,48,9.70
2012,12,04,10,49,9.70
2012,12,04,10,50,9.70
2012,12,04,10,51,9.70
2012,12,04,10,52,9.70
2012,12,04,10,53,9.80
2012,12,04,10,54,9.80
2012,12,04,10,55,9.80
2012,12,04,10,56,9.80
2012,12,04,10,57,9.80
2012,12,04,10,58,9.80
2012,12,04,10,59,9.80
2012,12,04,11,00,9.80
2012,12,04,11,01,9.80
2012,12,04,11,02,9.80
2012,12,04,11,03,9.90
2012,12,04,11,04,9.90
2012,12,04,11,05,9.90
2012,12,04,11,06,9.90
2012,12,04,11,07,9.90
2012,12,04,11,08,9.90
2012,12,04,11,09,9.90
2012,12,04,11,10,9.90
2012,12,04,11,11,9.90
2012,12,04,11,12,9.90
2012,12,04,11,13,9.90
2012,12,04,11,14,9.90
2012,12,04,11,15,9.90
2012,12,04,11,16,9.90
2012,12,04,11,17,10.00
2012,12,04,11,18,10.00
2012,12,04,11,19,10.10
2012,12,04,11,20,10.10
2012,12,04,11,21,10.10
2012,12,04,11,22,10.10
2012,12,04,11,23,10.20
2012,12,04,11,24,10.20
2012,12,04,11,25,10.20
2012,12,04,11,26,10.30
2012,12,04,11,27,10.30
2012,12,04,11,28,10.30
2012,12,04,11,29,10.30
2012,12,04,11,30,10.30
2012,12,04,11,31,10.20
2012,12,04,11,32,10.20
2012,12,04,11,33,10.20
2012,12,04,11,34,10.30
2012,12,04,11,35,10.30
2012,12,04,11,36,10.30
2012,12,04,11,37,10.30
2012,12,04,11,38,10.30
2012,12,04,11,39,10.30
2012,12,04,11,40,10.20
2012,12,04,11,41,10.20
2012,12,04,11,42,10.10
2012,12,04,11,43,10.10
2012,12,04,11,44,10.10
2012,12,04,11,45,10.00
2012,12,04,11,46,10.00
2012,12,04,11,47,9.90
2012,12,04,11,48,9.90
2012,12,04,11,49,9.90
2012,12,04,11,50,9.90
2012,12,04,11,51,9.80
2012,12,04,11,52,9.80
2012,12,04,11,53,9.80
2012,12,04,11,54,9.80
2012,12,04,11,55,9.80
2012,12,04,11,56,9.80
2012,12,04,11,57,9.80
2012,12,04,11,58,9.80
2012,12,04,11,59,9.80
2012,12,04,12,00,9.80
2012,12,04,12,01,9.70
2012,12,04,12,02,9.70
2012,12,04,12,03,9.70
2012,12,04,12,04,9.60
2012,12,04,12,05,9.60
2012,12,04,12,06,9.60
2012,12,04,12,07,9.60
2012,12,04,12,08,9.50
2012,12,04,12,09,9.50
2012,12,04,12,10,9.40
2012,12,04,12,11,9.40
2012,12,04,12,12,9.30
2012,12,04,12,13,9.30
2012,12,04,12,14,9.20
2012,12,04,12,15,9.20
2012,12,04,12,16,9.10
2012,12,04,12,17,9.10
2012,12,04,12,18,9.00
2012,12,04,12,19,8.90
2012,12,04,12,20,8.90
2012,12,04,12,21,8.90
2012,12,04,12,22,8.90
2012,12,04,12,23,8.80
2012,12,04,12,24,8.80
2012,12,04,12,25,8.80
2012,12,04,12,26,8.80
2012,12,04,12,27,8.80
2012,12,04,12,28,8.80
2012,12,04,12,29,8.80
2012,12,04,12,30,8.80
2012,12,04,12,31,8.80
2012,12,04,12,32,8.80
2012,12,04,12,33,8.80
2012,12,04,12,34,8.80
2012,12,04,12,35,8.80
2012,12,04,12,36,8.80
2012,12,04,12,37,8.80
2012,12,04,12,38,8.80
2012,12,04,12,39,8.80
2012,12,04,12,40,8.80
2012,12,04,12,41,8.80
2012,12,04,12,42,8.90
2012,12,04,12,43,8.90
2012,12,04,12,44,8.90
2012,12,04,12,45,8.80
2012,12,04,12,46,8.80
2012,12,04,12,47,8.80
2012,12,04,12,48,8.90
2012,12,04,12,49,8.80
2012,12,04,12,50,8.80
2012,12,04,12,51,8.80
2012,12,04,12,52,8.80
2012,12,04,12,53,8.80
2012,12,04,12,54,8.70
2012,12,04,12,55,8.70
2012,12,04,12,56,8.70
2012,12,04,12,57,8.60
2012,12,04,12,58,8.60
2012,12,04,12,59,8.60
2012,12,04,13,00,8.60
2012,12,04,13,01,8.60
2012,12,04,13,02,8.60
2012,12,04,13,03,8.60
2012,12,04,13,04,8.60
2012,12,04,13,05,8.60
2012,12,04,13,06,8.60
2012,12,04,13,07,8.60
2012,12,04,13,08,8.60
2012,12,04,13,09,8.60
2012,12,04,13,10,8.60
2012,12,04,13,11,8.60
2012,12,04,13,12,8.60
2012,12,04,13,13,8.60
2012,12,04,13,14,8.60
2012,12,04,13,15,8.50
2012,12,04,13,16,8.60
2012,12,04,13,17,8.50
2012,12,04,13,18,8.50
2012,12,04,13,19,8.40
2012,12,04,13,20,8.40
2012,12,04,13,21,8.40
2012,12,04,13,22,8.40
2012,12,04,13,23,8.30
2012,12,04,13,24,8.30
2012,12,04,13,25,8.30
2012,12,04,13,26,8.30
2012,12,04,13,27,8.30
2012,12,04,13,28,8.30
2012,12,04,13,29,8.20
2012,12,04,13,30,8.20
2012,12,04,13,31,8.20
2012,12,04,13,32,8.20
2012,12,04,13,33,8.20
2012,12,04,13,34,8.20
2012,12,04,13,35,8.20
2012,12,04,13,36,8.20
2012,12,04,13,37,8.20
2012,12,04,13,38,8.20
2012,12,04,13,39,8.20
2012,12,04,13,40,8.20
2012,12,04,13,41,8.20
2012,12,04,13,42,8.20
2012,12,04,13,43,8.20
2012,12,04,13,44,8.20
2012,12,04,13,45,8.20
2012,12,04,13,46,8.20
2012,12,04,13,47,8.20
2012,12,04,13,48,8.20
2012,12,04,13,49,8.20
2012,12,04,13,50,8.20
2012,12,04,13,51,8.20
2012,12,04,13,52,8.10
2012,12,04,13,53,8.20
2012,12,04,13,54,8.20
2012,12,04,13,55,8.20
2012,12,04,13,56,8.20
2012,12,04,13,57,8.20
2012,12,04,13,58,8.20
2012,12,04,13,59,8.20
2012,12,04,14,00,8.20
2012,12,04,14,01,8.20
2012,12,04,14,02,8.20
2012,12,04,14,03,8.20
2012,12,04,14,04,8.20
2012,12,04,14,05,8.20
2012,12,04,14,06,8.10
2012,12,04,14,07,8.10
2012,12,04,14,08,8.00
2012,12,04,14,09,8.00
2012,12,04,14,10,7.90
2012,12,04,14,11,7.80
2012,12,04,14,12,7.80
2012,12,04,14,13,7.70
2012,12,04,14,14,7.70
2012,12,04,14,15,7.70
2012,12,04,14,16,7.60
2012,12,04,14,17,7.60
2012,12,04,14,18,7.50
2012,12,04,14,19,7.50
2012,12,04,14,20,7.40
2012,12,04,14,21,7.40
2012,12,04,14,22,7.40
2012,12,04,14,23,7.40
2012,12,04,14,24,7.30
2012,12,04,14,25,7.30
2012,12,04,14,26,7.30
2012,12,04,14,27,7.30
2012,12,04,14,28,7.30
2012,12,04,14,29,7.20
2012,12,04,14,30,7.20
2012,12,04,14,31,7.20
2012,12,04,14,32,7.20
2012,12,04,14,33,7.10
2012,12,04,14,34,7.10
2012,12,04,14,35,7.10
2012,12,04,14,36,7.10
2012,12,04,14,37,7.10
2012,12,04,14,38,7.10
2012,12,04,14,39,7.00
2012,12,04,14,40,7.00
2012,12,04,14,41,7.00
2012,12,04,14,42,7.00
2012,12,04,14,43,7.00
2012,12,04,14,44,6.90
2012,12,04,14,45,6.90
2012,12,04,14,46,6.90
2012,12,04,14,47,6.80
2012,12,04,14,48,6.80
2012,12,04,14,49,6.80
2012,12,04,14,50,6.80
2012,12,04,14,51,6.80
2012,12,04,14,52,6.80
2012,12,04,14,53,6.80
2012,12,04,14,54,6.80
2012,12,04,14,55,6.80
2012,12,04,14,56,6.80
2012,12,04,14,57,6.80
2012,12,04,14,58,6.80
2012,12,04,14,59,6.80
2012,12,04,15,00,6.80
2012,12,04,15,01,6.80
2012,12,04,15,02,6.80
2012,12,04,15,03,6.80
2012,12,04,15,04,6.80
2012,12,04,15,05,6.70
2012,12,04,15,06,6.70
2012,12,04,15,07,6.70
2012,12,04,15,08,6.70
2012,12,04,15,09,6.70
2012,12,04,15,10,6.70
2012,12,04,15,11,6.70
2012,12,04,15,12,6.70
2012,12,04,15,13,6.70
2012,12,04,15,14,6.70
2012,12,04,15,15,6.70
2012,12,04,15,16,6.70
2012,12,04,15,17,6.60
2012,12,04,15,18,6.60
2012,12,04,15,19,6.60
2012,12,04,15,20,6.60
2012,12,04,15,21,6.60
2012,12,04,15,22,6.60
2012,12,04,15,23,6.60
2012,12,04,15,24,6.60
2012,12,04,15,25,6.60
2012,12,04,15,26,6.60
2012,12,04,15,27,6.60
2012,12,04,15,28,6.60
2012,12,04,15,29,6.60
2012,12,04,15,30,6.60
2012,12,04,15,31,6.60
2012,12,04,15,32,6.60
2012,12,04,15,33,6.60
2012,12,04,15,34,6.60
2012,12,04,15,35,6.60
2012,12,04,15,36,6.60
2012,12,04,15,37,6.60
2012,12,04,15,38,6.60
2012,12,04,15,39,6.60
2012,12,04,15,40,6.60
2012,12,04,15,41,6.60
2012,12,04,15,42,6.60
2012,12,04,15,43,6.60
2012,12,04,15,44,6.60
2012,12,04,15,45,6.60
2012,12,04,15,46,6.60
2012,12,04,15,47,6.60
2012,12,04,15,48,6.60
2012,12,04,15,49,6.60
2012,12,04,15,50,6.50
2012,12,04,15,51,6.50
2012,12,04,15,52,6.50
2012,12,04,15,53,6.50
2012,12,04,15,54,6.50
2012,12,04,15,55,6.40
2012,12,04,15,56,6.40
2012,12,04,15,57,6.40
2012,12,04,15,58,6.40
2012,12,04,15,59,6.40
2012,12,04,16,00,6.40
2012,12,04,16,01,6.40
2012,12,04,16,02,6.40
2012,12,04,16,03,6.40
2012,12,04,16,04,6.40
2012,12,04,16,05,6.40
2012,12,04,16,06,6.40
2012,12,04,16,07,6.40
2012,12,04,16,08,6.40
2012,12,04,16,09,6.40
2012,12,04,16,10,6.40
2012,12,04,16,11,6.40
2012,12,04,16,12,6.40
2012,12,04,16,13,6.40
2012,12,04,16,14,6.40
2012,12,04,16,15,6.40
2012,12,04,16,16,6.40
2012,12,04,16,17,6.40
2012,12,04,16,18,6.40
2012,12,04,16,19,6.40
2012,12,04,16,20,6.40
2012,12,04,16,21,6.40
2012,12,04,16,22,6.40
2012,12,04,16,23,6.40
2012,12,04,16,24,6.40
2012,12,04,16,25,6.40
2012,12,04,16,26,6.40
2012,12,04,16,27,6.50
2012,12,04,16,28,6.40
2012,12,04,16,29,6.50
2012,12,04,16,30,6.40
2012,12,04,16,31,6.40
2012,12,04,16,32,6.40
2012,12,04,16,33,6.40
2012,12,04,16,34,6.40
2012,12,04,16,35,6.40
2012,12,04,16,36,6.40
2012,12,04,16,37,6.40
2012,12,04,16,38,6.30
2012,12,04,16,39,6.30
2012,12,04,16,40,6.30
2012,12,04,16,41,6.30
2012,12,04,16,42,6.30
2012,12,04,16,43,6.30
2012,12,04,16,44,6.20
2012,12,04,16,45,6.20
2012,12,04,16,46,6.20
2012,12,04,16,47,6.20
2012,12,04,16,48,6.20
2012,12,04,16,49,6.20
2012,12,04,16,50,6.20
2012,12,04,16,51,6.10
2012,12,04,16,52,6.10
2012,12,04,16,53,6.10
2012,12,04,16,54,6.10
2012,12,04,16,55,6.10
2012,12,04,16,56,6.10
2012,12,04,16,57,6.10
2012,12,04,16,58,6.10
2012,12,04,16,59,6.10
2012,12,04,17,00,6.10
2012,12,04,17,01,6.10
2012,12,04,17,02,6.00
2012,12,04,17,03,6.00
2012,12,04,17,04,6.00
2012,12,04,17,05,6.00
2012,12,04,17,06,6.00
2012,12,04,17,07,6.00
2012,12,04,17,08,6.00
2012,12,04,17,09,6.00
2012,12,04,17,10,6.00
2012,12,04,17,11,5.90
2012,12,04,17,12,5.90
2012,12,04,17,13,5.90
2012,12,04,17,14,5.90
2012,12,04,17,15,5.90
2012,12,04,17,16,5.90
2012,12,04,17,17,5.90
2012,12,04,17,18,5.80
2012,12,04,17,19,5.80
2012,12,04,17,20,5.80
2012,12,04,17,21,5.80
2012,12,04,17,22,5.80
2012,12,04,17,23,5.80
2012,12,04,17,24,5.80
2012,12,04,17,25,5.80
2012,12,04,17,26,5.80
2012,12,04,17,27,5.80
2012,12,04,17,28,5.80
2012,12,04,17,29,5.80
2012,12,04,17,30,5.80
2012,12,04,17,31,5.80
2012,12,04,17,32,5.80
2012,12,04,17,33,5.80
2012,12,04,17,34,5.80
2012,12,04,17,35,5.80
2012,12,04,17,36,5.80
2012,12,04,17,37,5.80
2012,12,04,17,38,5.80
2012,12,04,17,39,5.80
2012,12,04,17,40,5.80
2012,12,04,17,41,5.80
2012,12,04,17,42,5.80
2012,12,04,17,43,5.80
2012,12,04,17,44,5.80
2012,12,04,17,45,5.80
2012,12,04,17,46,5.80
2012,12,04,17,47,5.80
2012,12,04,17,48,5.80
2012,12,04,17,49,5.80
2012,12,04,17,50,5.80
2012,12,04,17,51,5.80
2012,12,04,17,52,5.80
2012,12,04,17,53,5.80
2012,12,04,17,54,5.80
2012,12,04,17,55,5.80
2012,12,04,17,56,5.80
2012,12,04,17,57,5.80
2012,12,04,17,58,5.80
2012,12,04,17,59,5.80
2012,12,04,18,00,5.80
2012,12,04,18,01,5.80
2012,12,04,18,02,5.80
2012,12,04,18,03,5.80
2012,12,04,18,04,5.80
2012,12,04,18,05,5.80